CW1663 Weather Reports


time (UTC)temp
C
wind
direction
speed
KPH
gust
KPH
rain 1hr
cm
rain 24hr
cm
rain mn
cm
humidity
%
barometer
mb
20260508004304 9 132 0.0 0.0 0.00 0.00 0.00 85 1015.7
20260508002804 9 132 0.0 0.0 0.00 0.00 0.00 85 1015.7
20260508002306 9 132 0.0 0.0 0.00 0.00 0.00 85 1015.7
20260508001804 9 132 0.0 0.0 0.00 0.00 0.00 85 1015.7
20260508000804 9 132 0.0 0.0 0.00 0.00 0.00 85 1015.7
20260507235306 9 132 0.0 0.0 0.00 0.00 0.00 85 1015.7
20260507233804 9 132 0.0 0.0 0.00 0.00 0.00 85 1015.7
20260507233304 9 132 0.0 0.0 0.00 0.00 0.00 85 1015.7
20260507232306 9 132 0.0 0.0 0.00 0.00 0.00 85 1015.7
20260507231804 9 132 0.0 0.0 0.00 0.00 0.00 85 1015.7
20260507225804 9 132 0.0 0.0 0.00 0.00 0.00 85 1015.7
20260507224304 9 132 0.0 0.0 0.00 0.00 0.00 85 1015.7
20260507223804 9 132 0.0 0.0 0.00 0.00 0.00 85 1015.7
20260507221804 9 132 0.0 0.0 0.00 0.00 0.00 85 1015.7
20260507221304 9 132 0.0 0.0 0.00 0.00 0.00 85 1015.7
20260507220804 9 132 0.0 0.0 0.00 0.00 0.00 85 1015.7
20260507215804 9 132 0.0 0.0 0.00 0.00 0.00 85 1015.7
20260507215306 9 132 0.0 0.0 0.00 0.00 0.00 85 1015.7
20260507214804 9 132 0.0 0.0 0.00 0.00 0.00 85 1015.7
20260507214304 9 132 0.0 0.0 0.00 0.00 0.00 85 1015.7
20260507212803 9 132 0.0 0.0 0.00 0.00 0.00 85 1015.7
20260507211804 9 132 0.0 0.0 0.00 0.00 0.00 85 1015.7
20260507210804 9 132 0.0 0.0 0.00 0.00 0.00 85 1015.7
20260507205804 9 132 0.0 0.0 0.00 0.00 0.00 85 1015.7
20260507205306 9 132 0.0 0.0 0.00 0.00 0.00 85 1015.7
20260507204804 9 132 0.0 0.0 0.00 0.00 0.00 85 1015.7
20260507204304 9 132 0.0 0.0 0.00 0.00 0.00 85 1015.7
20260507203804 9 132 0.0 0.0 0.00 0.00 0.00 85 1015.7
20260507202306 9 132 0.0 0.0 0.00 0.00 0.00 85 1015.7
20260507201804 9 132 0.0 0.0 0.00 0.00 0.00 85 1015.7
20260507201304 9 132 0.0 1.6 0.00 0.00 0.00 85 1015.7
20260507200304 9 132 0.0 0.0 0.00 0.00 0.00 85 1015.6
20260507195305 10 132 0.0 3.2 0.00 0.00 0.00 84 1015.4
20260507194804 10 132 0.0 3.2 0.00 0.00 0.00 84 1015.4
20260507194304 10 132 1.6 3.2 0.00 0.00 0.00 84 1015.4
20260507193304 10 132 0.0 3.2 0.00 0.00 0.00 83 1015.3
20260507190304 11 135 1.6 4.8 0.00 0.00 0.00 81 1015.1
20260507185804 11 135 0.0 4.8 0.00 0.00 0.00 81 1015.1
20260507184804 11 135 0.0 3.2 0.00 0.00 0.00 80 1015.0
20260507184304 11 135 3.2 4.8 0.00 0.00 0.00 80 1015.0
20260507183304 11 140 3.2 11.3 0.00 0.00 0.00 79 1015.0
20260507182804 11 142 0.0 4.8 0.00 0.00 0.00 79 1015.0
20260507182306 11 143 3.2 4.8 0.00 0.00 0.00 79 1014.9
20260507181304 12 146 1.6 9.7 0.00 0.00 0.00 79 1015.0
20260507174304 12 116 1.6 9.7 0.00 0.00 0.00 77 1014.7
20260507173804 12 166 3.2 9.7 0.00 0.00 0.00 77 1014.7
20260507173304 12 165 1.6 4.8 0.00 0.00 0.00 78 1014.8
20260507172804 12 167 1.6 4.8 0.00 0.00 0.00 78 1014.8
20260507171804 12 115 4.8 11.3 0.00 0.00 0.00 78 1015.0
20260507164804 12 95 4.8 9.7 0.00 0.00 0.00 79 1015.0
20260507163804 12 96 3.2 9.7 0.00 0.00 0.00 79 1015.1
20260507163305 12 132 1.6 4.8 0.00 0.00 0.00 80 1015.1
20260507162804 12 132 4.8 8.0 0.00 0.00 0.00 79 1015.1
20260507162307 12 114 3.2 4.8 0.00 0.00 0.00 79 1015.1
20260507161304 12 133 1.6 4.8 0.00 0.00 0.00 80 1015.1
20260507160304 12 134 3.2 4.8 0.00 0.00 0.00 79 1015.1
20260507155804 12 139 3.2 4.8 0.00 0.00 0.00 79 1015.1
20260507153304 12 159 4.8 8.0 0.00 0.00 0.00 79 1015.2
20260507151804 12 185 1.6 4.8 0.00 0.00 0.00 79 1015.2
20260507151304 12 187 3.2 4.8 0.00 0.00 0.00 79 1015.2
20260507150804 11 190 3.2 4.8 0.00 0.00 0.00 79 1015.2
20260507150304 11 215 1.6 4.8 0.00 0.00 0.00 79 1015.3
20260507145306 11 215 1.6 4.8 0.00 0.00 0.00 79 1015.2
20260507142306 12 217 3.2 4.8 0.00 0.00 0.00 78 1015.4
20260507141803 12 157 0.0 3.2 0.00 0.00 0.00 78 1015.4
20260507141304 12 157 0.0 4.8 0.00 0.00 0.00 78 1015.5
20260507140805 12 157 1.6 4.8 0.00 0.00 0.00 78 1015.5
20260507140304 12 157 0.0 3.2 0.00 0.00 0.00 78 1015.5
20260507135804 11 157 0.0 3.2 0.00 0.00 0.00 78 1015.5
20260507135306 11 157 1.6 3.2 0.00 0.00 0.00 78 1015.6
20260507134304 11 157 1.6 4.8 0.00 0.00 0.00 78 1015.5
20260507133304 11 157 1.6 4.8 0.00 0.00 0.00 79 1015.5
20260507132307 11 146 1.6 3.2 0.00 0.00 0.00 79 1015.5
20260507131803 11 146 1.6 4.8 0.00 0.00 0.00 79 1015.5
20260507130804 11 142 0.0 0.0 0.00 0.00 0.00 80 1015.6
20260507130304 11 142 0.0 0.0 0.00 0.00 0.00 80 1015.6
20260507125804 11 142 0.0 1.6 0.00 0.00 0.00 79 1015.6
20260507125306 11 142 1.6 4.8 0.00 0.00 0.00 79 1015.7
20260507124804 11 142 3.2 4.8 0.00 0.00 0.00 79 1015.7
20260507124304 11 147 1.6 3.2 0.00 0.00 0.00 79 1015.7
20260507121304 11 151 3.2 4.8 0.00 0.00 0.00 75 1015.7
20260507120804 11 74 0.0 0.0 0.00 0.00 0.00 75 1015.7
20260507115307 11 42 0.0 1.6 0.00 0.00 0.00 74 1015.6
20260507114304 11 42 1.6 4.8 0.00 0.00 0.00 74 1015.5
20260507113804 11 42 1.6 4.8 0.00 0.00 0.00 73 1015.5
20260507110805 11 311 3.2 11.3 0.00 0.00 0.00 74 1015.7
20260507104804 11 325 4.8 11.3 0.00 0.00 0.00 72 1015.7
20260507104305 12 329 4.8 8.0 0.00 0.00 0.00 72 1015.7
20260507103304 12 240 1.6 4.8 0.00 0.00 0.00 71 1015.7
20260507093804 12 148 4.8 11.3 0.00 0.00 0.00 72 1015.7
20260507092306 12 154 3.2 12.9 0.00 0.00 0.00 73 1015.7
20260507091804 12 133 4.8 11.3 0.00 0.00 0.00 73 1015.7
20260507085804 12 140 4.8 9.7 0.00 0.00 0.00 74 1015.5
20260507085306 12 122 3.2 9.7 0.00 0.00 0.00 76 1015.7
20260507084804 12 123 3.2 11.3 0.00 0.00 0.00 76 1015.7
20260507084304 12 145 6.4 11.3 0.00 0.00 0.00 75 1015.6
20260507082804 11 342 1.6 9.7 0.00 0.00 0.00 78 1015.6
20260507081804 11 68 3.2 8.0 0.00 0.00 0.00 79 1015.5
20260507081304 11 75 3.2 8.0 0.00 0.00 0.00 80 1015.5
20260507080804 11 106 1.6 8.0 0.00 0.00 0.00 82 1015.5
20260507080304 11 78 3.2 4.8 0.00 0.00 0.00 83 1015.4
20260507075307 10 128 3.2 8.0 0.00 0.00 0.00 85 1015.4
20260507073804 10 97 3.2 4.8 0.00 0.00 0.00 88 1015.4
20260507073304 9 98 1.6 4.8 0.00 0.00 0.00 89 1015.3
20260507072803 9 97 1.6 9.7 0.00 0.00 0.00 89 1015.3
20260507072306 9 91 3.2 4.8 0.00 0.00 0.00 89 1015.3
20260507071304 8 76 1.6 3.2 0.00 0.00 0.00 90 1015.2
20260507070304 8 57 1.6 4.8 0.00 0.00 0.00 90 1015.2
20260507065804 8 55 1.6 4.8 0.00 0.00 0.00 90 1015.2
20260507065306 8 52 1.6 4.8 0.00 0.00 0.00 90 1015.2
20260507063804 8 48 0.0 3.2 0.00 0.00 0.00 90 1015.2
20260507062306 8 34 1.6 3.2 0.00 0.00 0.00 90 1015.0
20260507061305 8 34 0.0 3.2 0.00 0.00 0.00 90 1015.1
20260507060804 8 34 0.0 0.0 0.00 0.00 0.00 90 1015.1
20260507055804 8 34 0.0 1.6 0.00 0.00 0.00 90 1015.2
20260507055306 8 34 0.0 0.0 0.00 0.00 0.00 90 1015.0
20260507054803 8 34 0.0 1.6 0.00 0.00 0.00 90 1015.0
20260507054304 8 34 0.0 0.0 0.00 0.00 0.00 90 1014.9
20260507053304 8 34 1.6 3.2 0.00 0.00 0.00 90 1014.8
20260507052306 8 33 1.6 3.2 0.00 0.00 0.00 90 1014.8
20260507051804 8 33 0.0 1.6 0.00 0.00 0.00 90 1014.8
20260507051304 8 33 1.6 3.2 0.00 0.00 0.00 90 1014.8
20260507045306 8 34 0.0 1.6 0.00 0.00 0.00 90 1014.6
20260507044304 8 33 0.0 3.2 0.00 0.00 0.00 90 1014.6
20260507043804 8 34 1.6 3.2 0.00 0.00 0.00 90 1014.6
20260507042804 8 34 0.0 4.8 0.00 0.00 0.00 90 1014.5
20260507042306 8 47 0.0 4.8 0.00 0.00 0.00 89 1014.5
20260507041803 8 46 1.6 3.2 0.00 0.00 0.00 89 1014.5
20260507040304 8 46 0.0 3.2 0.00 0.00 0.00 89 1014.5
20260507034804 8 46 1.6 4.8 0.00 0.00 0.00 89 1014.5
20260507033804 8 51 1.6 4.8 0.00 0.00 0.00 89 1014.4
20260507032306 8 32 1.6 4.8 0.00 0.00 0.00 89 1014.4
20260507030304 8 34 0.0 0.0 0.00 0.00 0.00 89 1014.3
20260507025804 8 34 0.0 0.0 0.00 0.00 0.00 89 1014.3
20260507025306 8 34 0.0 1.6 0.00 0.00 0.00 89 1014.3
20260507022804 8 33 0.0 1.6 0.00 0.00 0.00 89 1014.2
20260507021804 8 33 1.6 3.2 0.00 0.00 0.00 89 1014.2
20260507020304 8 33 0.0 1.6 0.00 0.00 0.00 89 1014.1
20260507015804 8 33 1.6 4.8 0.00 0.00 0.00 89 1014.1
20260507015306 8 34 0.0 1.6 0.00 0.00 0.00 89 1014.2
20260507013304 8 34 0.0 3.2 0.00 0.00 0.00 89 1014.1
20260507012804 8 34 1.6 4.8 0.00 0.00 0.00 89 1014.1
20260507011804 8 40 1.6 4.8 0.00 0.00 0.00 89 1014.1
20260507005305 8 73 1.6 4.8 0.00 0.00 0.00 88 1014.1
20260507004804 8 74 1.6 4.8 0.00 0.00 0.00 88 1014.1